Wind_Speed
51 50 47 39 42 43 43 44 42 38 37 37 37 35 37 39 32 31 30 27 24 22 20 21 22 23 23 25 24 23 22 23 23 21 19 19 21 24 25 27 30 34 36 39
54 51 44 45 46 47 46 44 41 40 39 39 38 34 35 40 33 31 33 29 27 26 25 24 23 26 25 25 25 24 23 23 23 21 20 20 21 24 26 27 30 33 35 36
54 51 49 48 49 49 47 44 42 43 43 42 40 37 37 40 37 34 33 32 31 30 29 27 25 25 26 27 26 25 24 24 23 22 21 21 21 23 26 26 29 30 34 33
53 55 54 54 53 51 50 47 45 46 45 45 42 43 38 39 38 36 35 35 34 32 30 29 28 24 25 27 25 24 25 24 23 22 22 22 21 22 25 26 28 29 32 32
52 50 49 53 51 51 51 49 48 49 49 48 46 47 38 38 38 36 36 36 35 33 31 30 29 28 27 27 25 24 24 24 24 22 22 22 23 22 23 25 26 27 30 31
55 52 51 51 50 52 52 50 49 50 50 53 47 47 43 38 37 37 36 36 34 32 31 30 30 29 29 27 24 24 23 23 23 22 22 24 24 22 22 23 25 26 27 31
62 59 56 53 51 51 52 48 48 49 50 52 47 46 44 40 36 37 36 35 34 33 32 30 29 29 29 27 26 25 23 24 23 22 23 24 25 23 22 23 24 24 24 29
63 63 58 55 52 50 47 46 46 45 48 47 48 48 43 39 34 33 35 36 34 33 32 30 30 30 28 27 26 24 24 24 23 23 24 25 25 24 22 23 24 24 23 27
61 64 61 56 54 53 51 51 47 46 47 47 48 48 43 39 35 34 34 34 34 34 32 31 32 30 28 27 25 26 26 24 24 23 24 25 25 26 25 23 22 24 21 24
62 62 63 61 57 55 53 52 50 51 52 51 51 49 44 38 37 38 36 34 32 32 32 33 31 29 27 27 29 29 27 25 25 24 25 25 25 26 25 22 21 22 21 21
54 64 64 63 60 59 58 55 53 51 51 51 50 48 43 41 40 38 35 34 33 34 33 31 29 30 30 31 32 31 29 28 27 26 26 27 27 25 25 21 18 20 20 19
45 57 64 62 65 63 59 56 53 53 54 53 51 50 48 46 41 37 35 36 36 36 31 28 31 35 38 35 33 32 31 31 28 28 28 28 28 26 26 24 20 18 20 19
50 49 55 62 64 66 66 65 67 64 54 54 50 53 51 47 42 41 39 39 39 35 33 36 37 39 39 38 36 34 33 34 31 31 31 30 30 29 26 25 22 20 19 18
56 49 47 51 60 60 59 57 55 54 60 61 59 54 52 51 50 44 41 43 41 38 41 41 40 37 35 34 33 32 32 33 32 33 33 32 31 31 25 25 24 22 21 19
56 51 53 43 49 57 60 58 56 57 54 57 50 52 52 50 44 45 47 44 43 45 42 38 33 32 31 31 30 29 30 29 29 30 32 33 32 32 28 26 26 25 23 23
57 55 53 45 44 51 57 57 55 52 52 53 53 50 49 50 51 48 47 46 45 41 35 31 29 28 27 27 29 30 31 32 32 32 31 30 31 30 31 29 28 23 22 22
55 61 56 49 40 43 48 58 58 57 55 53 53 48 48 49 48 48 49 47 42 35 32 30 27 26 25 27 29 31 32 33 34 35 36 36 36 34 34 34 32 26 22 20
55 54 53 47 46 52 44 42 45 52 55 52 51 47 44 44 45 45 44 41 35 31 29 28 27 27 27 29 31 33 34 35 36 38 38 39 38 37 37 36 34 29 26 22
57 56 55 48 47 51 44 43 43 44 46 48 48 49 46 43 41 39 38 36 35 35 33 31 28 27 28 31 35 38 40 42 42 42 44 44 41 39 39 38 37 33 32 28
60 58 56 56 57 44 40 42 44 45 47 45 44 45 44 44 42 35 34 37 41 41 39 37 36 36 38 41 44 47 47 49 49 49 48 47 44 39 39 40 40 38 35 33
56 54 64 63 47 41 42 43 44 46 41 39 40 42 40 40 37 37 41 42 42 41 42 42 42 44 47 50 53 55 49 46 45 44 44 43 42 43 42 40 37 39 35 30
62 67 64 64 56 45 41 43 47 37 34 35 37 37 37 37 38 40 40 41 41 42 44 45 47 48 52 56 53 46 41 38 35 36 39 41 40 40 42 41 41 40 36 30
68 57 59 59 50 53 54 45 44 44 40 37 37 38 34 38 41 41 40 39 39 39 41 44 48 54 50 45 41 37 33 31 29 29 28 30 30 30 29 34 36 34 33 32
69 67 69 62 56 56 49 45 48 49 50 46 42 40 40 39 40 39 39 39 40 42 45 48 50 45 42 37 34 31 30 29 27 25 26 26 27 25 27 25 25 26 28 31
63 64 66 58 55 54 49 46 47 44 43 48 49 43 38 40 42 42 42 41 41 44 47 44 40 36 34 32 29 26 26 25 26 27 30 31 30 29 26 30 29 28 26 26
75 71 65 52 50 52 46 46 48 43 43 42 40 45 45 43 42 41 40 42 42 43 40 37 33 31 28 25 24 24 23 23 23 25 26 27 30 33 32 31 28 28 25 28
Wind_Direction
230 231 233 235 235 233 232 232 234 237 239 242 238 235 245 251 252 257 263 267 271 280 291 300 309 314 320 320 324 326 320 313 311 313 315 313 312 314 312 313 315 316 317 322
231 231 231 232 232 235 235 236 238 239 240 241 242 240 246 252 251 254 262 265 267 272 282 289 297 304 308 311 317 321 316 309 310 312 313 309 310 314 315 315 318 324 326 326
233 233 232 230 232 234 237 238 239 242 243 244 243 242 243 251 255 253 256 260 263 269 276 283 288 296 299 304 310 314 312 306 309 308 310 310 311 313 315 317 321 327 331 332
232 232 232 232 231 233 234 237 239 242 244 245 246 246 244 248 251 255 256 258 261 267 273 279 285 289 293 298 304 308 307 304 305 306 308 309 311 312 315 319 321 327 331 336
236 235 236 237 238 238 238 239 241 242 245 246 246 250 241 248 252 253 255 259 262 266 271 275 279 284 289 292 299 301 300 301 301 302 304 308 310 312 314 319 323 328 332 338
230 230 233 235 234 236 238 238 241 243 245 246 247 251 249 248 252 252 255 258 262 266 267 271 276 280 285 290 293 293 292 295 295 297 299 306 309 311 315 320 324 328 333 336
231 233 234 233 232 234 236 235 238 240 241 247 248 250 255 250 248 252 254 256 257 260 264 268 273 278 281 284 286 286 287 290 291 292 295 301 306 310 314 317 322 327 332 335
231 233 236 234 236 239 241 238 241 244 245 247 249 247 248 252 250 249 253 256 258 260 262 266 270 272 275 278 278 279 282 284 284 287 290 297 304 308 314 317 321 325 331 335
230 230 230 232 234 235 236 235 236 240 245 245 245 248 247 248 252 252 253 255 257 260 263 266 268 269 273 273 275 276 274 278 279 282 287 294 300 306 310 315 318 322 329 332
234 232 230 231 230 230 234 236 235 237 240 244 247 248 251 252 255 255 254 255 258 260 262 263 267 271 268 273 277 270 268 273 277 278 280 288 294 302 311 313 314 319 324 326
232 231 231 231 230 232 232 232 233 235 239 243 248 251 251 252 253 255 258 260 260 261 263 265 269 266 271 276 270 266 265 271 273 274 275 283 290 299 304 313 313 314 320 322
238 234 234 238 236 234 235 235 237 241 244 247 250 252 255 253 254 258 260 261 263 264 265 266 268 270 273 270 262 262 263 267 272 271 271 279 285 294 298 305 307 309 315 316
239 233 233 235 238 239 241 240 242 242 238 240 242 248 252 256 255 259 263 265 265 262 266 274 272 270 269 261 258 259 263 265 270 272 272 278 281 285 290 293 298 302 306 311
242 243 234 237 239 241 243 241 240 243 241 243 247 249 252 258 266 265 263 260 258 263 274 272 270 265 259 256 256 259 264 267 269 270 269 272 273 276 281 286 293 296 296 297
241 240 230 224 230 232 230 233 238 243 245 245 249 250 254 255 256 259 260 259 265 272 270 267 256 251 251 254 257 259 261 262 265 267 271 274 275 271 276 282 288 297 295 291
239 231 228 241 238 233 235 234 234 232 235 240 242 240 241 245 255 255 255 264 269 263 259 248 244 245 249 253 256 259 260 264 267 266 268 271 272 274 274 276 278 283 285 287
237 237 244 256 246 244 240 236 238 237 236 240 243 247 247 248 249 254 259 257 257 251 243 245 247 248 250 254 257 259 261 263 263 265 267 269 269 269 270 272 276 276 270 279
226 233 239 247 244 238 241 238 236 236 237 238 239 243 246 244 242 241 241 243 244 241 242 243 247 253 259 263 265 267 267 265 263 262 263 264 264 262 263 268 270 272 262 266
225 231 239 240 243 241 242 239 240 240 238 239 239 238 238 237 237 240 241 240 240 239 240 243 248 255 265 274 276 274 270 267 264 261 261 264 265 263 260 261 266 265 264 265
226 229 232 239 236 238 229 232 231 232 230 228 229 233 234 237 241 237 235 235 235 237 241 244 250 257 269 278 284 285 277 269 264 261 261 263 264 263 264 265 266 267 267 266
225 225 229 230 239 234 234 226 227 232 232 234 232 232 231 232 231 232 233 237 241 245 249 254 261 268 274 277 282 284 277 269 266 263 262 262 262 263 261 262 267 268 272 271
219 223 227 229 236 232 220 224 229 232 235 230 226 227 229 230 230 236 241 246 250 256 261 266 270 274 277 280 280 277 274 272 268 264 260 259 259 257 258 259 260 260 262 262
219 221 224 232 242 233 233 233 239 241 240 235 232 232 235 237 237 242 247 249 252 258 264 268 274 278 276 273 272 271 271 271 269 267 267 268 268 267 266 265 264 261 257 256
226 226 232 234 231 231 241 245 246 248 245 244 237 237 237 241 244 246 246 249 256 261 268 272 275 270 267 266 266 264 264 263 265 266 266 268 265 263 263 261 260 260 264 256
224 224 222 226 228 237 232 237 236 237 240 240 238 239 246 244 245 248 251 255 260 267 268 266 261 259 258 256 254 253 252 253 256 261 263 265 263 264 266 256 252 253 254 258
218 217 218 227 233 236 232 234 234 234 240 239 234 236 241 245 246 247 250 254 261 261 256 253 251 248 248 248 248 248 250 254 261 267 268 268 266 259 252 257 253 255 254 257
Height
5736 5742 5750 5757 5758 5761 5764 5767 5772 5776 5780 5782 5785 5789 5790 5790 5797 5797 5799 5800 5799 5800 5799 5797 5795 5794 5791 5788 5785 5781 5778 5775 5772 5769 5767 5765 5762 5758 5754 5750 5746 5741 5735 5728
5727 5735 5741 5743 5748 5752 5756 5761 5766 5768 5771 5774 5777 5784 5784 5782 5789 5792 5792 5794 5794 5794 5794 5792 5791 5790 5788 5785 5782 5778 5775 5772 5769 5766 5764 5762 5759 5755 5751 5748 5743 5738 5732 5726
5718 5727 5728 5733 5738 5743 5748 5754 5758 5760 5762 5765 5769 5775 5777 5777 5780 5784 5786 5787 5787 5788 5788 5787 5785 5784 5783 5780 5778 5774 5771 5768 5765 5763 5761 5758 5755 5753 5749 5744 5740 5735 5730 5723
5705 5712 5718 5723 5728 5732 5738 5744 5748 5750 5754 5757 5761 5764 5769 5771 5773 5775 5778 5779 5780 5781 5782 5781 5781 5780 5778 5775 5773 5770 5767 5764 5762 5759 5757 5756 5752 5749 5746 5742 5737 5733 5728 5721
5702 5705 5710 5716 5724 5725 5731 5734 5737 5740 5743 5747 5751 5752 5763 5764 5767 5770 5770 5771 5774 5775 5776 5775 5775 5774 5772 5770 5768 5766 5763 5760 5758 5756 5753 5751 5749 5746 5743 5739 5735 5731 5726 5719
5683 5691 5697 5705 5710 5713 5719 5723 5726 5729 5732 5735 5744 5744 5753 5757 5760 5761 5763 5764 5766 5768 5769 5769 5769 5768 5766 5764 5762 5760 5758 5756 5753 5751 5749 5748 5746 5743 5740 5737 5732 5728 5724 5719
5672 5678 5686 5693 5699 5702 5708 5713 5715 5718 5721 5727 5736 5737 5745 5748 5752 5753 5756 5757 5759 5760 5761 5761 5761 5761 5759 5758 5757 5755 5753 5751 5749 5748 5746 5744 5743 5740 5737 5734 5730 5726 5722 5719
5660 5668 5677 5685 5690 5696 5702 5705 5708 5710 5714 5721 5723 5725 5734 5738 5743 5746 5747 5749 5750 5752 5753 5754 5754 5753 5752 5751 5750 5749 5748 5746 5745 5744 5742 5741 5740 5737 5735 5732 5728 5724 5721 5718
5649 5654 5664 5672 5678 5683 5688 5693 5699 5702 5704 5708 5713 5717 5725 5729 5734 5737 5739 5741 5743 5744 5745 5746 5746 5746 5745 5745 5744 5743 5742 5742 5741 5740 5738 5737 5736 5734 5732 5729 5726 5722 5719 5716
5637 5644 5650 5658 5664 5669 5676 5685 5688 5689 5692 5696 5703 5709 5716 5723 5726 5727 5731 5733 5735 5736 5737 5738 5738 5739 5739 5739 5737 5736 5737 5737 5736 5735 5733 5732 5731 5730 5728 5725 5724 5720 5718 5715
5623 5631 5639 5644 5650 5658 5664 5669 5675 5681 5684 5688 5694 5702 5709 5712 5716 5718 5722 5725 5727 5727 5728 5729 5730 5731 5732 5731 5730 5730 5731 5731 5730 5729 5729 5728 5727 5726 5724 5722 5720 5718 5715 5714
5613 5619 5624 5632 5640 5646 5652 5660 5665 5669 5677 5682 5687 5693 5695 5702 5707 5711 5714 5716 5716 5717 5719 5721 5722 5723 5723 5723 5723 5723 5724 5724 5724 5723 5723 5723 5722 5722 5721 5719 5717 5715 5713 5712
5604 5604 5610 5617 5624 5631 5637 5647 5654 5659 5666 5670 5677 5683 5684 5689 5696 5701 5705 5706 5707 5708 5711 5712 5712 5713 5713 5714 5714 5715 5716 5717 5718 5717 5718 5717 5717 5716 5716 5714 5713 5712 5711 5709
5589 5593 5597 5606 5615 5623 5628 5636 5642 5649 5654 5662 5668 5674 5677 5680 5684 5690 5693 5693 5696 5699 5701 5702 5702 5702 5703 5704 5706 5707 5709 5710 5711 5711 5710 5710 5710 5710 5710 5709 5709 5707 5706 5705
5579 5585 5589 5592 5598 5603 5612 5621 5627 5634 5645 5648 5660 5663 5667 5670 5675 5677 5678 5682 5687 5689 5690 5691 5691 5693 5694 5696 5698 5700 5701 5702 5703 5703 5702 5703 5704 5704 5704 5704 5704 5704 5702 5702
5569 5576 5581 5582 5588 5593 5598 5606 5614 5623 5629 5635 5640 5649 5654 5658 5662 5665 5668 5672 5675 5677 5680 5681 5684 5686 5688 5689 5691 5692 5694 5695 5696 5695 5695 5696 5696 5697 5697 5697 5697 5697 5697 5697
5558 5564 5569 5572 5579 5583 5584 5600 5604 5612 5619 5626 5631 5642 5647 5649 5653 5657 5660 5661 5664 5668 5671 5674 5677 5678 5680 5682 5684 5685 5686 5687 5688 5688 5688 5688 5689 5688 5689 5689 5689 5690 5691 5690
5545 5550 5555 5561 5569 5568 5583 5588 5593 5599 5607 5614 5622 5628 5634 5639 5640 5642 5646 5651 5656 5660 5663 5665 5668 5670 5672 5674 5676 5677 5677 5678 5679 5679 5679 5678 5678 5678 5679 5680 5681 5682 5683 5684
5532 5540 5545 5551 5557 5564 5572 5582 5587 5589 5599 5605 5613 5617 5622 5626 5631 5635 5640 5645 5649 5651 5653 5656 5658 5661 5663 5665 5666 5666 5666 5666 5667 5668 5668 5668 5668 5669 5669 5670 5672 5673 5674 5676
5521 5529 5537 5540 5546 5554 5571 5570 5574 5578 5584 5594 5601 5606 5612 5617 5622 5631 5634 5636 5638 5640 5644 5647 5649 5651 5652 5652 5653 5653 5654 5655 5655 5655 5656 5656 5657 5658 5659 5661 5663 5665 5666 5666
5508 5516 5522 5532 5536 5548 5559 5563 5565 5569 5589 5588 5594 5596 5602 5610 5618 5619 5620 5625 5629 5633 5635 5637 5639 5640 5641 5641 5641 5640 5639 5640 5641 5642 5644 5645 5646 5647 5648 5650 5653 5655 5656 5657
5496 5504 5514 5524 5532 5544 5553 5555 5563 5574 5572 5578 5583 5589 5595 5600 5604 5607 5612 5616 5620 5624 5626 5628 5628 5628 5628 5627 5626 5625 5626 5627 5629 5630 5632 5633 5634 5635 5636 5638 5641 5643 5646 5649
5478 5493 5509 5518 5531 5540 5544 5550 5553 5558 5564 5569 5575 5581 5587 5591 5595 5599 5603 5607 5610 5613 5615 5616 5617 5616 5615 5614 5614 5614 5615 5616 5619 5621 5622 5624 5625 5626 5627 5628 5630 5632 5635 5637
5477 5490 5497 5509 5519 5527 5534 5538 5543 5547 5553 5560 5566 5572 5576 5581 5585 5589 5593 5597 5599 5602 5603 5604 5603 5603 5603 5604 5605 5605 5607 5608 5610 5612 5614 5616 5617 5618 5619 5620 5621 5622 5623 5627
5468 5480 5489 5498 5509 5517 5523 5527 5529 5535 5541 5549 5556 5562 5567 5571 5575 5579 5583 5586 5588 5590 5591 5591 5591 5592 5593 5594 5595 5597 5599 5600 5602 5603 5605 5606 5608 5609 5611 5612 5613 5613 5615 5617
5453 5470 5480 5491 5503 5507 5513 5514 5519 5525 5532 5539 5545 5550 5556 5561 5565 5568 5572 5574 5576 5578 5579 5580 5582 5584 5585 5586 5588 5589 5591 5592 5594 5595 5596 5596 5597 5599 5602 5604 5605 5606 5608 5609